Home   Weather   Bremerhaven   Past weeks
Flag for Germany

Past Weather in Bremerhaven, Bremen, Germany — Yesterday and Last 2 Weeks

Now
61 °F

Drizzle. Partly sunny.


Feels Like: 61 °F
Forecast: 67 / 54 °F
Wind: 18 mph from Northwest

Location: Nordholz

Current Time: Jul 16, 2019 at 2:18:21 pm

Latest Report: Jul 16, 2019 at 12:20 pm


Visibility: N/A

Pressure: 30.01 "Hg

Humidity: 83%

Dew Point: 55 °F

Location of BremerhavenLocation

Past Weather in Bremerhaven — Graph

°F

Bremerhaven Temperature Yesterday

Maximum temperature yesterday: 61 °F (at 1:50 pm)
Minimum temperature yesterday: 55 °F (at 2:20 am)
Average temperature yesterday: 58 °F

High & Low Weather Summary for the Past Weeks

 TemperatureHumidityPressure
High70 °F (Jul 1, 12:20 pm)100% (Jul 6, 9:46 am)30.27 "Hg (Jul 6, 9:46 am)
Low52 °F (Jul 3, 11:20 pm)42% (Jul 10, 3:20 pm)29.74 "Hg (Jul 6, 9:46 am)
Average59 °F76%30.00 "Hg
* Reported Jul 1 12:20 pm — Jul 16 12:20 pm, Bremerhaven. Weather by CustomWeather, © 2019

Note: Actual official high and low records may vary slightly from our data, if they occured in-between our weather recording intervals... More about our weather records

Advertising

Bremerhaven Weather History for the Previous 24 Hours

Scroll right to see more
 ConditionsComfort  
Time TempWeatherWind HumidityBarometerVisibility
12:20 pm
Tue, Jul 16
61 °FDrizzle. Partly sunny.18 mph83%30.01 "HgN/A
11:20 am59 °FPartly sunny.18 mph88%30.01 "HgN/A
10:20 am59 °FBroken clouds.18 mph94%29.98 "Hg6 mi
9:47 am59 °FDrizzle. Broken clouds.16 mph88%29.98 "Hg4 mi
9:30 am59 °FDrizzle. Fog.17 mph88%29.98 "Hg2 mi
9:11 am57 °FPartly sunny.17 mph94%29.98 "Hg4 mi
8:43 am57 °FDrizzle. Fog.17 mph94%29.98 "Hg2 mi
8:20 am57 °FDrizzle. Fog.16 mph94%29.98 "Hg3 mi
7:36 am57 °FDrizzle. Partly sunny.14 mph94%29.98 "Hg4 mi
6:28 am57 °FDrizzle. Fog.14 mph94%29.98 "Hg2 mi
6:20 am55 °FDrizzle. Broken clouds.15 mph100%29.98 "Hg4 mi
5:48 am55 °FPartly sunny.17 mph94%29.98 "Hg5 mi
5:20 am55 °FDrizzle. Fog.13 mph100%29.98 "Hg2 mi
4:57 am55 °FPartly cloudy.15 mph94%29.98 "Hg4 mi
4:20 am55 °FPassing clouds.15 mph94%29.98 "HgN/A
3:20 am57 °FPassing clouds.12 mph88%30.01 "Hg5 mi
2:54 am57 °FPassing clouds.13 mph88%30.01 "HgN/A
2:20 am57 °FPassing clouds.14 mph88%30.01 "HgN/A
1:20 am57 °FPassing clouds.14 mph82%30.01 "HgN/A
12:59 am57 °FPassing clouds.15 mph82%30.01 "HgN/A
12:20 am57 °FPassing clouds.16 mph82%30.01 "HgN/A
11:20 pm
Mon, Jul 15
57 °FPassing clouds.14 mph77%30.01 "HgN/A
10:20 pm57 °FPassing clouds.14 mph82%30.01 "HgN/A
9:20 pm59 °FPartly sunny.15 mph77%30.01 "HgN/A
8:50 pm57 °FBroken clouds.16 mph82%30.01 "HgN/A
8:20 pm57 °FBroken clouds.16 mph82%30.01 "HgN/A
7:20 pm59 °FBroken clouds.17 mph72%30.01 "HgN/A
6:20 pm59 °FBroken clouds.17 mph77%30.01 "HgN/A
5:20 pm61 °FBroken clouds.21 mph72%30.04 "HgN/A
4:59 pm61 °FBroken clouds.20 mph68%30.04 "HgN/A
4:20 pm61 °FPartly sunny.20 mph68%30.04 "HgN/A
3:20 pm59 °FBroken clouds.18 mph72%30.04 "HgN/A
2:20 pm59 °FBroken clouds.18 mph68%30.04 "HgN/A
Weather by CustomWeather, © 2019

See weather overview

LIVE PARTIAL LUNAR ECLIPSE – Watch the eclipse as it happens